Lid_Strength_Index
4 6 7 7 12 11 13 12 9 9 9 7 6 7 8 8 10 12 2 1 0 -0 -1 -1 -2 -2 -2 -2 -2 -2 -2 -2 -2 -2 -2 -2 -2 -2 -2 -2 -3 -2 -2 -2 -2 -2 -2 -2 -2
5 6 7 9 14 16 13 10 10 9 7 6 6 6 7 9 5 4 3 1 -0 -0 -1 -1 -1 -2 -2 -2 -2 -2 -2 -2 -2 -2 -2 -2 -2 -2 -2 -2 -3 -2 -2 -2 -2 -2 -2 -2 -2
7 6 10 11 15 16 13 10 9 8 7 7 7 5 7 8 4 3 2 1 0 -0 -1 -1 -1 -2 -2 -2 -2 -2 -2 -2 -2 -2 -2 -2 -2 -2 -2 -2 -3 -2 -2 -2 -2 -2 -2 -2 -2
8 8 9 13 15 14 12 9 7 8 7 7 6 8 5 3 3 2 1 1 0 -0 -0 -1 -2 -2 -2 -2 -2 -2 -2 -2 -2 -2 -2 -2 -2 -2 -2 -2 -3 -2 -2 -2 -2 -2 -2 -2 -2
9 10 12 13 13 14 11 7 7 8 7 7 7 9 7 3 2 2 1 1 0 0 -0 -1 -1 -2 -2 -2 -2 -2 -2 -2 -2 -2 -2 -2 -2 -2 -2 -2 -2 -2 -2 -2 -2 -2 -2 -2 -2
11 10 14 14 13 13 12 7 7 7 7 7 7 8 7 3 3 2 1 1 -0 0 -0 -1 -0 -1 -2 -2 -2 -2 -2 -2 -2 -2 -2 -2 -2 -2 -2 -2 -2 -2 -2 -2 -2 -2 -2 -2 -2
11 12 14 14 13 14 12 7 8 8 7 7 6 9 6 4 2 2 2 1 0 -0 -0 -0 -0 -0 -0 -1 -1 -2 -2 -2 -2 -2 -2 -2 -2 -2 -2 -2 -2 -2 -2 -2 -2 -2 -2 -2 -2
11 11 14 13 13 12 11 8 7 8 8 6 5 9 9 4 2 2 2 1 1 0 0 0 0 -0 -0 -0 0 -0 -1 -2 -2 -2 -1 -1 -2 -2 -2 -1 -2 -2 -2 -2 -2 -2 -2 -1 -1
9 13 14 13 12 11 10 10 8 7 6 6 5 6 4 2 2 3 3 2 2 1 0 0 0 0 0 -0 1 0 -0 -1 -1 -1 -0 0 -0 -0 -1 -1 -2 -2 -2 -2 -2 -2 -1 -1 -1
9 13 13 10 10 10 11 10 8 8 8 7 7 4 3 2 3 3 4 3 3 2 2 1 0 0 0 -1 0 0 -0 -0 -0 -0 0 -0 0 0 -0 0 -1 -2 -2 -2 -1 -1 -1 -0 1
11 12 10 9 9 10 10 11 10 9 9 6 7 6 4 4 3 3 3 3 3 2 1 1 1 1 1 0 0 0 0 0 0 1 1 0 1 1 0 1 1 1 1 1 0 1 1 1 1
13 11 9 8 8 11 10 10 11 10 7 5 5 4 4 4 4 4 3 3 3 2 1 1 1 1 1 0 0 0 0 1 1 1 1 1 1 1 1 1 2 1 2 1 1 1 1 1 1
12 12 10 9 10 10 11 11 11 10 7 7 4 4 5 4 4 3 3 2 2 2 2 1 1 1 1 1 1 1 1 1 1 1 0 1 1 2 1 1 1 1 2 2 2 1 1 1 1
10 10 10 10 11 11 12 12 11 10 8 7 5 5 5 4 4 3 3 3 3 2 1 1 1 1 1 1 1 1 1 1 1 1 1 0 1 1 1 2 1 2 2 2 3 2 2 2 2
10 11 10 10 10 12 11 14 13 11 11 9 5 5 5 4 3 4 3 3 2 3 1 1 1 1 1 1 1 1 1 1 1 1 1 0 1 1 1 2 2 2 2 2 2 2 2 2 2
11 12 14 10 12 11 12 14 12 11 12 12 9 6 5 4 4 3 2 3 3 3 1 1 0 1 1 1 1 1 1 2 1 1 1 1 0 1 1 1 2 1 2 2 3 3 3 3 2
13 15 14 12 10 13 14 15 11 10 12 12 12 8 5 5 4 3 3 2 3 2 2 1 1 1 0 0 0 1 1 1 1 1 1 1 0 0 1 1 1 1 2 2 2 2 2 1 1
15 15 13 13 11 12 15 15 12 11 12 12 13 11 9 6 4 3 3 2 2 2 2 2 1 1 1 0 1 1 1 2 1 1 1 1 1 1 1 1 2 2 2 3 3 2 1 1 1
12 13 13 12 10 12 13 14 13 12 14 13 13 12 10 8 5 4 4 3 3 2 2 2 2 1 1 2 2 2 2 1 2 1 1 1 1 1 1 1 2 2 3 3 2 2 1 2 1
12 13 14 11 11 13 14 15 13 13 13 13 12 12 11 8 8 6 5 4 3 3 2 2 2 2 1 1 1 2 2 2 1 1 1 1 1 1 1 1 2 3 3 3 3 2 2 2 2
13 14 13 13 14 13 16 17 15 14 13 13 12 12 10 8 7 7 6 5 4 4 3 2 2 2 2 1 1 2 2 2 2 2 1 1 1 0 1 1 2 2 3 3 3 3 3 3 3
15 11 12 13 16 18 15 19 16 14 14 13 12 11 10 10 7 7 6 5 4 3 2 2 2 1 2 1 1 1 2 3 2 1 1 1 1 1 1 1 1 2 2 3 3 2 3 4 4
13 10 11 13 15 15 17 18 16 14 15 13 11 10 10 11 10 8 6 4 3 3 3 2 2 1 1 1 1 1 2 2 2 2 2 2 2 1 1 1 1 2 2 2 2 2 3 2 3
10 11 15 14 16 19 17 18 19 14 14 13 11 11 11 11 11 8 5 3 3 3 3 2 2 2 2 1 1 2 2 3 2 3 2 3 2 2 1 1 1 1 2 2 2 2 2 2 2
11 14 19 20 20 21 17 19 16 15 13 12 12 11 11 10 11 11 7 5 4 4 3 3 3 3 2 2 2 2 2 2 3 2 3 3 2 1 1 1 1 1 1 1 1 2 2 3 3
13 14 18 22 22 21 20 20 16 12 12 13 12 12 11 11 10 10 9 5 5 4 3 3 3 3 4 3 3 2 2 2 2 3 3 2 1 1 1 1 1 1 1 1 2 2 2 2 3
15 16 13 18 22 22 19 19 16 15 14 14 15 15 13 12 12 11 12 9 7 7 5 4 5 5 4 4 4 4 4 4 4 3 3 2 1 1 1 1 1 1 1 1 1 2 2 3 2
13 12 16 16 22 23 21 22 17 16 15 15 15 15 14 13 12 12 12 11 11 10 9 9 9 8 8 6 5 5 5 5 5 4 5 5 2 2 1 1 1 1 2 2 2 3 3 3 4
15 15 15 15 17 20 24 22 17 15 14 14 15 15 15 13 12 11 11 10 10 10 9 9 8 7 7 6 6 6 6 6 6 6 5 5 4 3 3 3 3 4 4 4 4 4 3 5 6
12 14 14 16 19 19 20 20 18 17 15 15 15 15 15 13 12 11 10 9 9 9 8 8 7 7 6 6 6 6 6 6 7 7 7 7 7 7 6 5 4 5 5 5 4 5 5 6 7